Погода в Глебычево

Россия / Санкт-Петербург и Ленинградская область     60°27′13″N   28°43′09″E
темп.,
°C
ветер,
м/с
пор.,
м/с
влажн.,
%
обл.,
%
осадки,
мм/ч
давл.,
гПа
погр.,
м
3 марта, ср
ср300:00−2з510910 0.0 1018239
03:00−2зсз511910 0.0 1018283
06:00−2зсз5109377 0.0 1016257
09:00−3з5109443 0.0 1015270
12:000з6118842 0.0 1012425
15:00+1зюз7128771 0.0 1009648
18:00+1зюз71497100 0.2 1005558
21:000сз61299100 1.3 1004482
4 марта, чт
чт400:00−2сз6138045 0.5 1003433
03:00−4сз4108623 0.5 1004279
06:00−5сз36910 0.0 1003166
09:00−6ссз37920 0.0 1004241
12:00−4ссз488389 0.0 1004616
15:00−4ссз597894 0.1 1005846
18:00−5ссз4107788 0.0 1005549
21:00−6ссз4108276 0.0 1006379
5 марта, пт
пт500:00−8ссз48838 0.0 1007273
03:00−9сз48844 0.0 1008265
06:00−10сз38870 0.0 1009262
09:00−9ссз478926 0.0 1010328
12:00−7с468199 0.0 1012628
15:00−6ссз356991 0.1 1014563
18:00−7ссз36721 0.0 1014262
21:00−8сз358416 0.0 1016118
6 марта, сб
сб600:00−9сз34917 0.0 1017110
03:00−9сз24924 0.0 101776
06:00−10з23930 0.0 101646
09:00−8юз35938 0.0 1015146
12:00−4юз6118178 0.0 1011583
15:00−4ююз10169289 0.7 10061077
18:00−2зюз101696100 4.7 998897
21:00−1зюз111892100 6.5 992765
7 марта, вс
вс700:000з81578100 0.8 9891326
03:00−8зсз9166294 0.8 9911075
06:00−10з716640 0.0 9901059
09:00−10зсз7147317 0.0 987913
12:00−7зсз81392100 0.7 988949
15:00−5ссз91383100 1.9 9921293
18:00−7с61181100 0.1 998708
21:00−8с61190100 0.2 1003901